カタログに戻る

INSAT 4A

運用中通信GEO
NORAD 28911·PAYLOAD·🇮🇳 India

打ち上げ Dec 21, 2005 から Guiana Space Centre

Loading…

TLE

最新Source: Space-Track

元期: Sep 14, 2026, 14:07 UTC

1 28911U 05049A   26257.58862105  .00000075  00000-0  00000+0 0  9997
2 28911   6.6604  70.6233 0007300 134.1912  68.8453  0.99195707 46312

AllMySatでINSAT 4Aをリアルタイム追跡

Download on the App Store